Location: Lauro
(40.8833°N, 14.6333°E)
Time: 06:29:12
(UTC+00:00)

Daily predictions for brighter satellites

Satellite Brightness Start Highest point End
(mag) Time Altitude Azimuth Time Altitude Azimuth Time Altitude Azimuth
Cosmos 2082 Rocket 2.2 18:20:43 10° S 18:26:19 62° ESE 18:31:55 10° NNE
Sich 1 3.2 18:24:31 10° S 18:28:49 54° E 18:33:09 10° NNE
COSMOS 2406 4.4 18:27:15 10° SW 18:32:47 49° WNW 18:38:21 10° NNE
Cosmos 2369 3.8 18:27:10 10° NNW 18:32:54 71° ENE 18:38:36 10° SSE
Cosmos 2322 Rocket 4.2 18:34:22 10° NNE 18:37:05 13° NE 18:39:46 10° ENE
H-2A R/B 2.6 18:32:35 10° S 18:37:38 62° W 18:42:35 10° NNW
CZ-4 R/B 4.2 18:35:02 10° SW 18:37:45 18° W 18:40:30 10° NW
Cosmos 2278 4.0 18:33:34 10° NNW 18:39:10 53° ENE 18:44:42 10° SE
USA 186 0.7 18:37:21 10° SSE 18:39:34 84° E 18:41:50 10° N
Cosmos 2228 Rocket 3.8 18:35:17 10° NNW 18:39:37 58° W 18:43:54 10° S
ATLAS 5 CENTAUR R/B 3.8 18:34:54 10° NW 18:40:26 39° WSW 18:46:41 10° S
ATLAS 3B R/B 4.1 18:38:34 10° SE 18:41:27 13° ESE 18:44:20 10° ENE
Cosmos 389 Rocket 2.9 18:39:53 10° NNW 18:43:20 65° W 18:46:47 10° S
Cosmos 676 Rocket 4.1 18:38:24 10° S 18:43:35 56° ESE 18:48:49 10° NNE
Meteor 1-4 Rocket 3.3 18:41:31 10° N 18:44:40 32° ENE 18:47:38 11° SE
MOS 1 4.3 18:41:13 10° SSE 18:46:50 74° ENE 18:52:30 10° N
Cosmos 972 4.5 18:43:03 10° NNW 18:48:03 80° WSW 18:52:54 10° SSE
CZ-2C R/B 4.4 18:44:51 10° SSW 18:49:16 37° W 18:53:39 10° NNW
Cosmos 1934 Rocket 4.3 18:44:04 10° SSE 18:50:09 50° E 18:56:16 10° NNE
Genesis I 3.1 18:47:24 10° NNW 18:51:16 80° NE 18:54:47 12° SE
Cosmos 1238 Rocket 4.0 18:51:42 14° E 18:52:01 14° E 18:53:37 10° NE
USA 276 4.5 18:52:24 10° NW 18:54:41 18° N 18:56:58 10° ENE
X-37B 1.7 18:52:16 10° WNW 18:55:15 38° N 18:58:07 11° ENE
Cosmos 1980 Rocket 2.3 18:50:27 10° NNW 18:56:06 65° ENE 19:01:19 12° SE
IRIDIUM 104 4.5 18:51:25 10° S 18:56:38 81° W 19:01:52 10° N
Lacrosse 5 2.9 18:54:07 10° NNW 18:58:45 34° NE 19:02:39 14° E
CZ-2C R/B 3.9 18:55:42 10° NNE 19:00:07 48° E 19:04:25 10° S
Resurs 01 Rocket 2.4 18:57:22 15° SE 19:00:30 33° ENE 19:04:30 10° N
Cosmos 1833 Rocket 4.2 18:56:38 10° SW 19:01:53 40° WNW 19:07:12 10° N
USA 238 DEB 3.7 18:58:40 10° SSW 19:05:16 90° E 19:12:08 10° NE
SPOT 3 Rocket 3.7 19:00:21 11° SSE 19:05:19 58° ENE 19:10:25 10° N
USA 238 3.6 18:58:46 10° SSW 19:05:21 89° SE 19:12:14 10° NE
Cosmos 1697 Rocket 3.4 19:02:56 10° NNW 19:08:23 53° WSW 19:13:48 10° S
Cosmos 1933 Rocket 4.5 19:05:54 17° SE 19:08:30 29° E 19:12:20 10° NNE
Cosmos 1666 Rocket 3.6 19:04:33 10° S 19:08:51 83° W 19:13:13 10° N
CENTAUR R/B 2.4 19:03:19 10° SSW 19:08:53 58° ESE 19:15:27 10° NE
GP-B 4.0 19:05:00 10° NNE 19:08:55 30° E 19:11:09 20° SE
Cosmos 1954 Rocket 4.1 19:06:25 10° SSW 19:11:45 83° WNW 19:17:06 10° NNE
Meteor 1-20 Rocket 4.5 19:06:36 10° SSE 19:12:12 51° E 19:17:51 10° NNE
FREGAT/IRIS 4.2 19:13:03 10° SSW 19:15:24 28° W 19:17:44 10° NW
DMSP B5D2-2 4.3 19:10:50 10° N 19:16:04 73° WNW 19:21:18 10° SSW
Ariane Rocket 3.9 19:11:23 10° S 19:16:15 48° W 19:21:09 10° NNW
Cosmos 405 Rocket 3.2 19:15:00 22° SE 19:16:47 36° E 19:20:14 10° NNE
Cosmos 1741 Rocket 4.4 19:14:45 10° S 19:19:39 42° ESE 19:24:37 10° NNE
Intercosmos 25 4.0 19:17:14 10° NNW 19:20:34 44° W 19:23:36 10° SSW
SJ-6B 4.2 19:20:33 10° SSW 19:24:20 39° W 19:28:04 10° NNW
Okean 1-7 4.4 19:21:03 10° NNE 19:24:20 21° ENE 19:24:59 20° E
Resurs 1-3 3.7 19:25:39 14° S 19:29:20 77° WSW 19:33:44 10° NNW
NOSS 2 (A) 3.8 19:27:46 10° NW 19:30:13 77° WSW 19:30:20 73° SSW
Cosmos 1763 Rocket 4.1 19:25:50 10° N 19:30:54 42° ENE 19:33:12 27° ESE
Cosmos 1437 Rocket 3.9 19:28:31 10° NNE 19:31:41 25° ENE 19:31:55 25° E
OBJECT-B 1.5 19:29:41 17° S 19:32:02 52° W 19:35:16 10° NNW
Cosmos 2084 Rocket 3.3 19:30:01 10° SW 19:34:10 88° NW 19:38:27 10° NE
Cosmos 1703 Rocket 4.4 19:30:38 10° NNE 19:34:28 30° ENE 19:35:10 28° E
Cosmos 1633 Rocket 4.0 19:31:28 10° SSW 19:35:45 50° W 19:40:04 10° N
H-2A R/B 3.6 19:32:36 10° NNE 19:36:39 50° E 19:38:17 31° SSE
Cosmos 1184 Rocket 3.9 19:33:32 10° SSW 19:36:43 45° WNW 19:39:54 10° N
Landsat 7 4.4 19:36:27 30° ESE 19:38:02 39° ENE 19:42:27 10° N
SPOT 5 4.4 19:38:25 17° ENE 19:38:52 17° ENE 19:41:40 10° NNE
Cosmos 921 Rocket 2.9 19:39:03 10° NNW 19:43:16 82° WSW 19:45:04 33° S
MetOp-B 4.2 19:40:52 29° SE 19:43:33 63° ENE 19:48:51 10° N
Cosmos 2123 Rocket 4.2 19:38:15 10° NNW 19:44:27 71° W 19:50:24 11° S
Cosmos 1605 Rocket 3.9 19:44:19 10° S 19:50:26 86° W 19:56:34 10° N
Meteor 1-19 Rocket 4.2 19:47:36 10° N 19:53:00 60° ENE 19:54:58 38° SE
Cosmos 2100 Rocket 4.4 19:52:15 33° ESE 19:53:51 39° E 19:59:28 10° NNE
Okean 1 3.2 19:51:25 10° N 19:55:29 71° E 19:56:09 57° SE
Cosmos 2173 Rocket 4.4 19:56:36 35° ESE 19:57:56 39° E 20:03:33 10° NNE
USA 267 3.1 19:51:58 10° NE 19:58:29 66° SE 20:04:58 10° SW
Cosmos 2219 Rocket 4.4 19:58:20 10° NNE 20:00:38 12° NE 20:02:41 10° ENE
Meteor 2-4 Rocket 4.1 19:56:19 10° N 20:01:36 42° ENE 20:02:35 39° ESE
Cosmos 540 Rocket 4.0 19:58:55 10° N 20:03:48 41° ENE 20:04:39 38° E
SL-4 R/B 4.5 20:01:56 10° NW 20:04:26 16° N 20:06:49 10° NE
SL-27 R/B 2.4 20:04:28 72° WNW 20:04:28 72° WNW 20:07:45 10° NNE
SL-16 R/B 2.2 19:59:06 10° NNW 20:04:46 69° ENE 20:06:27 45° SE
BREEZE-M DEB (TANK) 4.4 20:02:49 10° NW 20:05:44 30° NNE 20:12:46 10° ENE
NOSS 3-2 (C) 4.1 20:00:44 10° SW 20:06:17 54° NW 20:12:35 10° NNE
Cosmos 2242 Rocket 3.5 20:03:43 10° N 20:08:08 82° W 20:09:08 53° S
Cosmos 1459 Rocket 4.2 20:09:17 42° SE 20:10:49 50° E 20:16:56 10° NNE
ERS-1 Rocket 3.2 20:16:14 49° E 20:16:41 50° ENE 20:21:32 10° N
Meteor 1-14 Rocket 4.4 20:13:21 22° SSW 20:17:15 81° W 20:23:15 10° N
Cosmos 2322 Rocket 2.1 20:16:23 10° NNW 20:22:06 77° ENE 20:23:14 58° SE
Cosmos 1500 4.1 20:25:36 41° NNE 20:25:36 41° NNE 20:28:08 10° N
SPOT 1/Viking Rocket 3.5 20:23:32 59° SSE 20:24:35 90° SW 20:29:51 10° NNW
Terra 2.6 20:27:56 39° ENE 20:27:56 39° ENE 20:32:00 10° N
Cosmos 841 Rocket 3.4 20:24:16 10° NNW 20:29:31 73° ENE 20:29:56 69° ESE
IGS 5A 3.9 20:29:39 53° WSW 20:29:54 54° W 20:34:00 10° NNW
ATLAS 3B R/B 2.4 20:24:28 10° SSW 20:31:05 83° ESE 20:37:44 10° NE
Cosmos 2360 Rocket 2.5 20:25:46 10° NNW 20:31:17 49° ENE 20:31:48 48° E
USA 276 4.1 20:28:22 10° NW 20:30:10 29° NW 20:30:10 29° NW
X-37B 2.8 20:28:53 10° WNW 20:30:22 25° WNW 20:30:22 25° WNW
USA 234 4.2 20:29:00 25° E 20:32:12 40° NNE 20:38:12 10° NW
Okean 3 4.4 20:28:59 10° N 20:32:07 38° NE 20:32:07 38° NE
Cosmos 2237 4.3 20:29:50 10° NNW 20:35:29 59° ENE 20:35:58 57° E
Resurs 01 Rocket 3.7 20:34:56 16° SW 20:37:02 22° W 20:40:29 10° NW
Iridium 4 Rocket 4.0 20:38:44 38° NNE 20:38:44 38° NNE 20:41:29 10° N
Cosmos 1980 Rocket 4.5 20:35:58 10° WNW 20:39:28 17° W 20:42:57 10° SW
CARTOSAT-1 3.8 20:40:31 67° N 20:40:31 67° N 20:44:17 10° NNW
Cosmos 44 3.3 20:35:29 10° NW 20:40:29 77° WSW 20:40:36 77° SW
Lacrosse 5 2.4 20:36:59 10° NW 20:41:49 46° SW 20:41:49 46° SW
Cosmos 2061 Rocket 3.8 20:50:45 69° ESE 20:51:01 70° E 20:57:11 10° NNE
Spot 2 Rocket 4.4 20:51:17 36° SW 20:52:16 40° W 20:57:03 10° NNW
Cosmos 1802 Rocket 3.9 20:54:58 65° S 20:56:01 88° WNW 21:02:23 10° N
Cosmos 1814 Rocket 4.0 20:51:55 10° NNW 20:56:56 77° WNW 20:56:56 77° WNW
COSMOS 2428 4.0 20:52:46 10° N 20:57:39 28° NE 20:57:48 28° ENE
Cosmos 1869 Rocket 4.5 20:57:44 44° W 20:57:48 44° WNW 21:02:05 10° N
CENTAUR R/B 4.3 20:54:40 10° W 21:00:00 31° NW 21:06:10 10° NNE
Cosmos 2237 Rocket 4.4 20:59:09 10° NNE 21:01:39 13° NE 21:02:46 12° ENE
Cosmos 1816 Rocket 4.4 21:03:02 10° N 21:09:03 69° ENE 21:09:03 69° ENE
ATLAS 5 CENTAUR R/B 3.1 21:12:17 10° NNW 21:14:58 51° NNE 21:14:58 51° NNE
Cosmos 2333 Rocket 2.9 21:10:17 10° NNW 21:15:19 45° NE 21:15:19 45° NE
SPOT 5 3.9 21:17:39 36° WNW 21:17:39 36° WNW 21:20:48 10° NNW
Meteor 1-11 Rocket 4.3 21:31:46 53° W 21:31:51 53° WNW 21:37:30 10° N
Lacrosse 4 Rocket 3.5 21:37:37 26° NNW 21:37:37 26° NNW 21:40:02 10° N
Tsikada Rocket 4.1 21:32:56 10° N 21:38:46 73° NW 21:38:46 73° NW
USA 267 4.3 21:35:12 10° NE 21:41:16 42° NNW 21:47:20 10° W
Cosmos 2219 Rocket 2.8 21:39:57 10° NNW 21:44:23 53° N 21:44:23 53° N
SL-16 R/B 4.3 21:44:53 10° WNW 21:48:12 16° W 21:48:19 16° W
Cosmos 2322 Rocket 4.5 22:02:32 10° WNW 22:05:03 14° W 22:05:03 14° W
Terra 4.0 22:06:49 19° WNW 22:06:49 19° WNW 22:09:04 10° NW
Cosmos 2360 Rocket 4.1 22:10:33 10° NW 22:13:33 21° W 22:13:33 21° W
USA 234 3.6 22:16:20 55° WNW 22:16:20 55° WNW 22:21:28 10° NW
SL-16 R/B 4.2 22:13:30 10° N 22:17:22 18° NE 22:17:41 18° NE
Cosmos 2297 Rocket 3.8 22:32:12 28° NE 22:32:12 28° NE 22:34:51 10° NNE
COSMOS 2428 4.2 22:36:40 10° NW 22:39:48 30° NW 22:39:48 30° NW
Cosmos 2237 Rocket 3.4 22:41:02 10° NNW 22:44:34 39° NNW 22:44:34 39° NNW
Cosmos 2333 Rocket 4.2 22:55:09 10° NW 22:57:19 19° WNW 22:57:19 19° WNW
Cosmos 2227 Rocket 3.4 23:22:00 40° N 23:22:00 40° N 23:25:39 10° NNE
Resurs 1-4 Rocket 4.2 23:33:14 10° NE 23:35:32 18° ENE 23:35:32 18° ENE
USA 229 DEB 4.0 23:53:16 57° NE 23:53:16 57° NE 23:58:39 10° NE
USA 229 4.0 23:53:24 57° NE 23:53:24 57° NE 23:58:45 10° NE
